Location: Wells
(51.2093°N, 2.6446°W)
Time: 06:54:40
(UTC+01:00)

PCSat - Pass Details

Date: 09 March 2026
Orbit: 780 x 790 km, 67.1° (Epoch: 13 April)

Event Time Altitude Azimuth Distance (km) Brightness Sun altitude
Exits shadow 02:01:17 22° 12° (NNE) 1,691 11.7 -38.9°
Drops below altitude 10° 02:03:27 10° 28° (NNE) 2,364 12.7 -38.7°
Sets 02:06:06 0° 38° (NE) 3,297 13.7 -38.5°
